When you browse on this site, cookies collect data to enhance your experience and personalize the content and advertising you see.
Visit our Privacy Policy to learn more. By continuing to use the site, you agree to this use of cookies and data.
  • In Lithuania
  • List of Countries
  • For 7 days
  • Water Temperature
  • Weather Map
  • Weather Widgets
  • user-avatar
    Login

    Hourly Weather Quito

    Today, 29 March, Sunday

    Time Temperature Precipitation Wind Pressure Humidity
    00:00 +18°C° 0.2 mm 1 mps 622 mmHg 92%
    01:00 +18°C° 0 mm 1 mps 622 mmHg 93%
    02:00 +18°C° 0.7 mm 1 mps 621 mmHg 94%
    03:00 +18°C° 0.7 mm 1 mps 621 mmHg 95%
    04:00 +16°C° 0.7 mm 1 mps 620 mmHg 95%
    05:00 +16°C° 0 mm 0 mps 621 mmHg 94%
    06:00 +16°C° 0 mm 0 mps 622 mmHg 93%
    07:00 +17°C° 0 mm 0 mps 623 mmHg 92%
    08:00 +20°C° 0.4 mm 1 mps 623 mmHg 88%
    09:00 +21°C° 0.4 mm 2 mps 623 mmHg 84%
    10:00 +23°C° 0.4 mm 2 mps 624 mmHg 80%
    11:00 +23°C° 1.3 mm 2 mps 623 mmHg 80%
    12:00 +24°C° 1.3 mm 3 mps 623 mmHg 79%
    13:00 +24°C° 1.3 mm 3 mps 622 mmHg 79%
    14:00 +24°C° 1.7 mm 3 mps 622 mmHg 81%
    15:00 +22°C° 1.7 mm 3 mps 621 mmHg 83%
    16:00 +21°C° 1.7 mm 3 mps 621 mmHg 86%
    17:00 +20°C° 1 mm 3 mps 621 mmHg 89%
    18:00 +19°C° 1 mm 3 mps 621 mmHg 92%
    19:00 +17°C° 1 mm 3 mps 621 mmHg 95%
    20:00 +17°C° 0.1 mm 3 mps 621 mmHg 96%
    21:00 +17°C° 0.1 mm 2 mps 621 mmHg 97%
    22:00 +16°C° 0.1 mm 1 mps 621 mmHg 97%
    23:00 +16°C° 0 mm 2 mps 621 mmHg 97%

    Tomorrow, 30 March, Monday

    Time Temperature Precipitation Wind Pressure Humidity
    00:00 +16°C° 0 mm 2 mps 621 mmHg 97%
    01:00 +16°C° 0 mm 2 mps 621 mmHg 96%
    02:00 +16°C° 0 mm 2 mps 621 mmHg 96%
    03:00 +16°C° 0 mm 2 mps 620 mmHg 96%
    04:00 +16°C° 0 mm 1 mps 620 mmHg 96%
    05:00 +16°C° 0 mm 1 mps 620 mmHg 95%
    06:00 +18°C° 0 mm 1 mps 621 mmHg 94%
    07:00 +16°C° 0 mm 0 mps 622 mmHg 93%
    08:00 +18°C° 0 mm 0 mps 623 mmHg 83%
    09:00 +21°C° 0 mm 0 mps 623 mmHg 73%
    10:00 +23°C° 0 mm 0 mps 624 mmHg 64%
    11:00 +26°C° 0 mm 1 mps 624 mmHg 60%
    12:00 +27°C° 0 mm 2 mps 623 mmHg 56%
    13:00 +27°C° 0 mm 2 mps 622 mmHg 52%
    14:00 +27°C° 0.1 mm 3 mps 622 mmHg 56%
    15:00 +26°C° 0.1 mm 3 mps 621 mmHg 60%
    16:00 +25°C° 0.1 mm 3 mps 621 mmHg 64%
    17:00 +23°C° 0.2 mm 2 mps 621 mmHg 72%
    18:00 +20°C° 0.2 mm 2 mps 621 mmHg 79%
    19:00 +20°C° 0.2 mm 1 mps 621 mmHg 86%
    20:00 +19°C° 0 mm 1 mps 621 mmHg 87%
    21:00 +19°C° 0 mm 1 mps 621 mmHg 87%
    22:00 +18°C° 0 mm 1 mps 621 mmHg 87%
    23:00 +18°C° 0 mm 1 mps 621 mmHg 89%

    Day after tomorrow, 31 March, Tuesday

    Time Temperature Precipitation Wind Pressure Humidity
    00:00 +16°C° 0 mm 1 mps 621 mmHg 90%
    01:00 +16°C° 0 mm 2 mps 621 mmHg 92%
    02:00 +16°C° 0 mm 2 mps 620 mmHg 92%
    03:00 +15°C° 0 mm 2 mps 620 mmHg 92%
    04:00 +15°C° 0 mm 2 mps 620 mmHg 93%
    05:00 +16°C° 0 mm 2 mps 620 mmHg 91%
    06:00 +16°C° 0 mm 2 mps 621 mmHg 89%
    07:00 +17°C° 0 mm 2 mps 622 mmHg 87%
    08:00 +20°C° 0 mm 1 mps 623 mmHg 77%
    09:00 +23°C° 0 mm 1 mps 624 mmHg 67%
    10:00 +25°C° 0 mm 1 mps 624 mmHg 57%
    11:00 +26°C° 0 mm 1 mps 624 mmHg 54%
    12:00 +27°C° 0 mm 1 mps 624 mmHg 52%
    13:00 +29°C° 0 mm 1 mps 623 mmHg 50%
    14:00 +28°C° 0 mm 1 mps 623 mmHg 52%
    15:00 +27°C° 0 mm 2 mps 622 mmHg 55%
    16:00 +27°C° 0 mm 2 mps 622 mmHg 58%
    17:00 +25°C° 0.2 mm 2 mps 622 mmHg 66%
    18:00 +22°C° 0.2 mm 1 mps 621 mmHg 74%
    19:00 +20°C° 0.2 mm 1 mps 621 mmHg 83%
    20:00 +20°C° 0 mm 1 mps 621 mmHg 85%
    21:00 +19°C° 0 mm 1 mps 621 mmHg 88%
    22:00 +18°C° 0 mm 1 mps 622 mmHg 91%
    23:00 +18°C° 0 mm 1 mps 621 mmHg 91%

    1 April, Wednesday

    Time Temperature Precipitation Wind Pressure Humidity
    00:00 +18°C° 0 mm 1 mps 621 mmHg 92%
    01:00 +18°C° 0 mm 1 mps 621 mmHg 92%
    02:00 +16°C° 0 mm 1 mps 621 mmHg 92%
    03:00 +16°C° 0 mm 1 mps 621 mmHg 92%
    04:00 +16°C° 0 mm 1 mps 621 mmHg 92%
    05:00 +18°C° 0 mm 1 mps 621 mmHg 89%
    06:00 +18°C° 0 mm 1 mps 622 mmHg 87%
    07:00 +19°C° 0 mm 1 mps 623 mmHg 84%
    08:00 +22°C° 0 mm 1 mps 624 mmHg 76%
    09:00 +24°C° 0 mm 1 mps 625 mmHg 67%
    10:00 +27°C° 0 mm 1 mps 626 mmHg 58%
    11:00 +27°C° 0.2 mm 1 mps 625 mmHg 58%
    12:00 +28°C° 0.2 mm 1 mps 624 mmHg 58%
    13:00 +28°C° 0.2 mm 1 mps 623 mmHg 58%
    14:00 +27°C° 1.2 mm 1 mps 623 mmHg 63%
    15:00 +26°C° 1.2 mm 1 mps 622 mmHg 67%
    16:00 +23°C° 1.2 mm 0 mps 621 mmHg 72%
    17:00 +21°C° 1 mm 0 mps 621 mmHg 77%
    18:00 +20°C° 1 mm 0 mps 621 mmHg 81%
    19:00 +18°C° 1 mm 0 mps 621 mmHg 86%
    20:00 +18°C° 0.7 mm 0 mps 622 mmHg 88%
    21:00 +19°C° 0.7 mm 1 mps 622 mmHg 89%
    22:00 +19°C° 0.7 mm 1 mps 622 mmHg 91%
    23:00 +19°C° 0.3 mm 1 mps 622 mmHg 92%

    2 April, Thursday

    Time Temperature Precipitation Wind Pressure Humidity
    00:00 +18°C° 0.3 mm 1 mps 622 mmHg 93%
    01:00 +18°C° 0.3 mm 1 mps 621 mmHg 94%
    02:00 +17°C° 0.5 mm 2 mps 621 mmHg 95%
    03:00 +17°C° 0.5 mm 2 mps 621 mmHg 95%
    04:00 +17°C° 0.5 mm 2 mps 621 mmHg 96%
    05:00 +17°C° 0.2 mm 2 mps 621 mmHg 94%
    06:00 +19°C° 0.2 mm 1 mps 622 mmHg 92%
    07:00 +19°C° 0.2 mm 1 mps 622 mmHg 90%
    08:00 +20°C° 0.3 mm 2 mps 623 mmHg 85%
    09:00 +21°C° 0.3 mm 2 mps 623 mmHg 80%
    10:00 +24°C° 0.3 mm 3 mps 624 mmHg 75%
    11:00 +25°C° 0.6 mm 3 mps 623 mmHg 71%
    12:00 +26°C° 0.6 mm 2 mps 623 mmHg 68%
    13:00 +26°C° 0.6 mm 2 mps 622 mmHg 64%
    14:00 +26°C° 1.2 mm 2 mps 622 mmHg 67%
    15:00 +26°C° 1.2 mm 2 mps 622 mmHg 70%
    16:00 +25°C° 1.2 mm 1 mps 621 mmHg 73%
    17:00 +23°C° 3 mm 1 mps 621 mmHg 79%
    18:00 +21°C° 3 mm 1 mps 621 mmHg 85%
    19:00 +19°C° 3 mm 2 mps 621 mmHg 91%
    20:00 +19°C° 1.4 mm 1 mps 621 mmHg 91%
    21:00 +19°C° 1.4 mm 1 mps 621 mmHg 92%
    22:00 +19°C° 1.4 mm 1 mps 622 mmHg 93%
    23:00 +18°C° 1 mm 1 mps 622 mmHg 94%

    3 April, Friday

    Time Temperature Precipitation Wind Pressure Humidity
    00:00 +18°C° 1 mm 1 mps 621 mmHg 95%
    01:00 +18°C° 1 mm 1 mps 621 mmHg 95%
    02:00 +18°C° 0.1 mm 1 mps 621 mmHg 95%
    03:00 +16°C° 0.1 mm 1 mps 621 mmHg 95%
    04:00 +16°C° 0.1 mm 1 mps 620 mmHg 94%
    05:00 +18°C° 0 mm 1 mps 621 mmHg 94%
    06:00 +18°C° 0 mm 1 mps 621 mmHg 93%
    07:00 +19°C° 0 mm 1 mps 622 mmHg 92%
    08:00 +21°C° 0.3 mm 1 mps 623 mmHg 86%
    09:00 +22°C° 0.3 mm 1 mps 623 mmHg 80%
    10:00 +24°C° 0.3 mm 2 mps 624 mmHg 74%
    11:00 +26°C° 0.1 mm 1 mps 624 mmHg 68%
    12:00 +27°C° 0.1 mm 1 mps 624 mmHg 63%
    13:00 +28°C° 0.1 mm 1 mps 623 mmHg 58%
    14:00 +27°C° 0.8 mm 1 mps 623 mmHg 63%
    15:00 +26°C° 0.8 mm 1 mps 622 mmHg 69%
    16:00 +25°C° 0.8 mm 1 mps 621 mmHg 74%
    17:00 +23°C° 0.8 mm 1 mps 621 mmHg 79%
    18:00 +21°C° 0.8 mm 1 mps 621 mmHg 83%
    19:00 +18°C° 0.8 mm 0 mps 621 mmHg 88%
    20:00 +17°C° 0.1 mm 0 mps 621 mmHg 89%
    21:00 +17°C° 0.1 mm 0 mps 621 mmHg 90%
    22:00 +17°C° 0.1 mm 0 mps 622 mmHg 90%
    23:00 +16°C° 0 mm 0 mps 621 mmHg 91%
    Show more